www.pogodaiklimat.ru

Погода и климат >> Архив погоды >> Молдова >> Кишинев


АРХИВ ПОГОДЫ в Кишиневе

Время (UTC), дата Ветер
(напр.,м/с)
 
Видим.   Явления Облачность Т
(С)
Тd
(С)
f
(%)
Тe
(С)
Тes
(С)
Комфортность P
(гПа)
Po
(гПа)
Тmin
(С)
Tmax
(С)
R
(мм)
R24
(мм)
S
(см)
09 14.06 ЮВ 3 20 км 6/5 600 м
[Cu med, cong Ac trans]
+29.5 +13.3 37 +31 +37 жарко 1004.8 985.9
12 14.06 Ю 5 20 км 6/3 600 м
[Cu med, cong Ac trans Ci fib]
+31.9 +8.8 24 +31 +35 жарко 1003.3 984.5
15 14.06 СЗ 7 20 км 3/0
[Ac trans]
+25.8 +14.9 51 +29 +30 душно 1004.9 985.7
18 14.06 СВ 3 20 км 3/0
[Ac trans Ci fib]
+22.6 +13.1 55 +26 +26 жарко 1005.8 986.4 +32.3
21 14.06 В 1 20 км 3/0
[Ac trans]
+20.3 +14.2 68 +24 +24 комфорт 1006.8 987.2
00 15.06 С 3 20 км 3/0
[Ac trans]
+17.2 +14.1 82 +17 +17 по сезону 1006.8 987.0
03 15.06 С 4 20 км 3/0
[Ci fib]
+16.7 +14.9 89 +16 +16 по сезону 1006.5 986.7
06 15.06 С 3 20 км 9/0
[Ci fib]
+21.6 +15.4 68 +25 +30 комфорт 1007.0 987.5 +16.5
09 15.06 СЗ 3 20 км 4/0
[Ci fib]
+27.1 +14.8 47 +30 +43 душно 1006.6 987.5
12 15.06 С 3 20 км 6/5 600 м
[Cu hum Ci fib]
+30.0 +11.5 32 +31 +37 жарко 1005.9 987.0
15 15.06 С 4 20 км 9/6 600 м
[Cu med, cong Ci fib]
+30.2 +12.2 33 +31 +32 жарко 1005.2 986.3
18 15.06 С 5 20 км 10/4 600 м
[Cu med, cong Ci fib]
+26.9 +14.6 47 +29 +29 жарко 1006.1 987.0 +31.9
21 15.06 С 4 20 км 10/0
[Ac trans Ci fib]
+24.0 +15.2 58 +27 +27 жарко 1007.5 988.2
00 16.06 С 3 20 км ясно +21.9 +16.0 69 +26 +26 душно 1007.2 987.7
03 16.06 С 5 20 км 9/4 600 м
[Cu hum Ac trans Ci fib]
+20.2 +15.2 73 +23 +23 комфорт 1007.8 988.2
06 16.06 С 4 20 км 10/8 600 м
[Cb cap Ac trans]
+20.7 +15.9 74 +24 +24 комфорт 1009.0 989.4 +20.1
09 16.06 С 6 20 км 10/6 600 м
[Cu med, cong Ac trans]
+22.7 +17.2 71 +28 +29 душно 1009.4 990.0
12 16.06 СВ 3 20 км гроза без осадков {ливн. осадки} 10/9 600 м
[Cb cap Ac trans]
+22.5 +15.6 65 +26 +27 жарко 1010.2 990.7
15 16.06 С 3 20 км слабый ливневой дождь {гроза} 10/10 600 м
[Cb calv]
+18.9 +17.7 93 +21 +21 комфорт 1010.2 990.5
18 16.06 СЗ 3 10 км {гроза, ливн. осадки} 10/10 600 м
[Cb calv]
+20.5 +18.6 89 +25 +25 комфорт 1009.8 990.2 +24.3 3
21 16.06 С 3 10 км слабый ливневой дождь 10/10 600 м
[Cb calv]
+19.8 +17.9 89 +23 +23 комфорт 1010.1 990.5
00 17.06 С 3 10 км в посл. час ливневой дождь 10/10 600 м
[Cb calv]
+18.1 +16.4 90 +18 +18 тепло 1009.8 990.0
03 17.06 С 2 20 км 10/8 600 м
[Cb calv Ac trans]
+18.0 +16.3 90 +19 +19 тепло 1009.1 989.4
06 17.06 С 2 20 км 10/10 600 м
[Cu med, cong]
+19.2 +16.6 85 +21 +21 комфорт 1009.7 990.0 +17.9 1
09 17.06 штиль 0 10 км в посл. час ливневой дождь 10/10 600 м
[Cb calv]
+19.2 +17.9 92 +21 +21 комфорт 1010.2 990.5
12 17.06 СВ 2 10 км слабый ливневой дождь 10/10 600 м
[Cb calv]
+21.1 +17.7 81 +25 +25 комфорт 1009.8 990.3
15 17.06 В 2 20 км {ливн. осадки} 10/10 600 м
[Cb calv]
+22.2 +17.8 76 +27 +27 душно 1009.0 989.5
18 17.06 В 2 20 км {ливн. осадки} 10/10 600 м
[Cb calv]
+21.0 +19.1 89 +26 +26 душно 1010.2 990.7 +22.5 12
21 17.06 штиль 0 10 км в посл. час ливневой дождь 10/10 600 м
[Cb calv]
+19.9 +17.3 85 +22 +22 комфорт 1010.8 991.2
00 18.06 С 2 10 км в посл. час ливневой дождь 10/10 600 м
[Cb calv]
+19.5 +17.8 90 +22 +22 комфорт 1011.1 991.4
03 18.06 С 2 20 км 10/10 600 м
[Cu med, cong]
+19.1 +16.0 82 +21 +21 комфорт 1010.7 991.0
06 18.06 С 3 20 км 9/4 600 м
[Sc Ac trans]
+20.4 +15.2 72 +23 +25 комфорт 1011.3 991.7 +18.7 0.4
09 18.06 С 2 20 км 10/5 600 м
[Cu hum Ac trans Ci fib]
+25.0 +15.6 56 +28 +32 жарко 1011.3 992.0
12 18.06 В 4 20 км 8/3 600 м
[Cu hum Ci fib]
+28.7 +7.9 27 +28 +34 жарко 1010.8 991.7
15 18.06 В 3 20 км 8/3 600 м
[Cu hum Ci fib]
+28.8 +8.0 27 +28 +31 жарко 1010.3 991.2
18 18.06 С 1 20 км 10/0
[Ac trans Ci fib]
+25.6 +6.8 30 +25 +25 комфорт 1011.7 992.3 +29.6
21 18.06 С 3 20 км 8/0
[Ac trans Ci fib]
+23.0 +9.1 41 +24 +24 комфорт 1013.6 994.0
00 19.06 С 4 20 км ясно +20.3 +9.8 51 +22 +22 комфорт 1014.0 994.3
03 19.06 С 3 20 км ясно +18.2 +10.3 60 +19 +19 тепло 1014.9 995.0
06 19.06 С 3 20 км 1/0
[Ac trans]
+22.3 +12.0 52 +25 +31 комфорт 1015.8 996.2 +18.2
09 19.06 СВ 1 20 км ясно +27.6 +7.5 28 +27 +48 жарко 1015.8 996.5
12 19.06 С 3 20 км 1/1 600 м
[Cu hum]
+29.8 +8.3 26 +29 +41 жарко 1015.2 996.0
15 19.06 СВ 2 20 км 1/1 600 м
[Cu hum]
+29.5 +9.6 29 +29 +34 жарко 1014.7 995.5
18 19.06 С 1 20 км 1/0
[Ci fib]
+26.8 +12.1 40 +28 +28 жарко 1015.4 996.1 +30.1
21 19.06 С 1 20 км ясно +23.8 +13.7 53 +26 +26 жарко 1016.6 997.1
00 20.06 С 2 20 км ясно +22.7 +14.3 59 +26 +26 жарко 1017.3 997.7
03 20.06 С 4 20 км ясно +21.8 +14.7 64 +25 +25 комфорт 1017.9 998.2
06 20.06 С 2 20 км 1/0
[Ci fib]
+25.6 +16.7 58 +29 +37 душно 1018.4 999.0 +21.6
09 20.06 С 3 20 км 10/8 600 м
[Cu med, cong Ci fib]
+28.9 +14.7 42 +31 +34 жарко 1018.4 999.2
12 20.06 СЗ 4 20 км {ливн. осадки} 9/6 600 м
[Cu med, cong Ac trans Ci fib]
+30.2 +13.9 37 +32 +34 жарко 1017.6 998.5
15 20.06 С 3 20 км 10/5 600 м
[Cu med, cong Ac trans Ci fib]
+30.0 +14.1 38 +32 +33 жарко 1016.8 997.7
18 20.06 С 2 20 км 10/0
[Ci fib]
+27.3 +13.3 42 +29 +29 жарко 1016.8 997.5 +31.4 0.0
21 20.06 С 1 20 км ясно +24.3 +13.8 52 +27 +27 жарко 1018.2 998.7
00 21.06 С 2 20 км ясно +22.0 +13.9 60 +25 +25 комфорт 1018.4 998.7
03 21.06 С 2 20 км 10/0
[Ac trans Ci fib]
+21.1 +14.0 64 +24 +24 комфорт 1018.1 998.4

 

Местоположение метеостанции Кишинев (Молдова): широта 47.02 долгота 28.98 высота над уровнем моря 173 м.

В архиве по умолчанию представлена погода в Кишиневе за последнюю неделю. Архивные данные за месяц целиком и за предыдущие месяцы, начиная с января 2011 года, Вы можете получить, выбрав интересующий диапазон дат из раскрывающегося списка и нажав кнопку "Ввод!".


*Определитесь, кто Вы:
робот инопланетянин человек

Внимание! Время в таблицах - всемирное. Для получения местного времени необходимо прибавить поправку, которая в Кишиневе равна 2 ч.

Смотрите также архив погоды в соседних городах и на ближайших метеорологических станциях:

Погода в Балцате (Молдова) (5 км)
Погода в Дубоссарах (Молдова) (29 км)
Погода в Кодрах (Молдова) (46 км)
Погода в Тирасполе (Молдова) (49 км)
Погода в Бравичах (Молдова) (57 км)
Погода в Штефан Водэ (Молдова) (67 км)
Погода в Корнестах (Молдова) (76 км)
Погода в Затишье (Одесская область, Украина) (76 км)
Погода в Леове (Молдова) (80 км)
Погода в Заставе (Одесская область, Украина) (81 км)

Пояснения к столбцам:

Ветер - указаны скорость ветра в м/с - средняя за 10 мин, порывы в срок и между сроками (в фигурных скобках) и направление, откуда дует ветер: С - северный, СВ - северо-восточный, В - восточный, ЮВ - юго-восточный, Ю - южный, ЮЗ - юго-западный, З - западный, СЗ - северо-западный.
Видимость - горизонтальная дальность видимости в метрах или километрах. При видимости от 1 до 10 км при отсутствии осадков обычно наблюдается дымка, при ухудшении видимости до 1 км и менее - туман. В сухую погоду видимость может ухудшаться дымом, пылью или мглою.
Явления - указаны атмосферные явления, наблюдавшиеся в срок или в последний час перед сроком; фигурными скобками обозначены явления, наблюдавшиеся между сроками (за 1-3 часа до срока); квадратными скобками обозначены град или гололедные отложения с указанием их диаметра в мм.
Облачность - указаны через наклонную черту общая и нижняя облачность в баллах и высота нижней границы облаков в метрах; квадратными скобками обозначены формы облаков: Ci - перистые, Cs - перисто-слоистые, Cc - перисто-кучевые, Ac - высококучевые, As - высокослоистые, Sc - слоисто-кучевые, Ns - слоисто-дождевые, Cu - кучевые, Cb - кучево-дождевые. Подробнее классификацию облаков см. в Атласе облаков (PDF).
T - Температура воздуха - температура, измеренная на высоте 2 м над землей.
Td - Температура точки росы - температура, при понижении до которой содержащийся в воздухе водяной пар достигнет насыщения.
f - Относительная влажность воздуха - влажноcть воздуха, измеренная на высоте 2 м над землей.
Te - Эффективная температура - температура, которую ощущает одетый по сезону человек в тени. Характеристика душности погоды. При расчете учитывается влияние влажности воздуха и скорости ветра на теплоощущения человека.
Tes - Эффективная температура на солнце - температура, которую ощущает человек, с поправкой на солнечный нагрев. Характеристика знойности погоды. Зависит от высоты солнца над горизонтом, облачности и скорости ветра. Ночью, в пасмурную погоду, а также при ветре 12 м/с и более поправка равна нулю.
P - Атмосферное давление - приведенное к уровню моря атмосферное давление.
Po - Атмосферное давление - измеренное на уровне метеостанции атмосферное давление.
Tmin - Минимальная температура - минимум температуры воздуха на высоте 2 м над землей.
Tmax - Максимальная температура - максимум температуры воздуха на высоте 2 м над землей.
R - Количество осадков - Количество выпавших осадков за период времени, мм. При наведении курсора мыши на число - период времени, за который выпало указанное количество осадков.
R24 - Количество осадков - Количество выпавших осадков за 24 часа, мм.
S - Снежный покров - Высота снежного покрова, см. При наведении курсора мыши на число - состояние снежного покрова и степень покрытия местности в баллах.